[[{"header":{"parameterUnit":"m.s-1","parameterCategory":2,"la1":30.2991,"la2":30.254,"lo1":-89.0895,"lo2":-89.0444,"dy":0.0017,"dx":0.0017,"nx":28,"ny":28,"refTime":"2023-08-14T21:00:00:Z","depth":"0","parameterNumber":2,"parameterNumberName":"U-component_of_CURRENTS"},"data":[0,0,0,0,0,0,0,0,0,0,0,0,0,0,0,0,0,0,0,0,0,0,0,0,0,0,0,0,0,0,0,0,0,0,0,0,0,0,0,0,0,0,0,0,0,0,0,0,0,0,0,0,0,0,0,0,0,0,-0.2378,-0.2379,0,-0.2402,-0.2402,-0.2402,-0.2446,-0.2448,-0.2449,-0.245,-0.2528,-0.2529,-0.253,0,0,0,0,0,0,0,0,0,0,0,0,0,-0.2414,-0.2413,-0.2378,-0.2379,-0.238,-0.2402,-0.2402,-0.2402,-0.2446,-0.2448,-0.2449,-0.2451,-0.2528,-0.2529,-0.253,0,0,0,0,0,0,0,0,0,0,0,0,0,-0.241,-0.2412,-0.2378,-0.2408,-0.2411,-0.2402,-0.2402,-0.2402,-0.2446,-0.2448,-0.245,-0.2451,-0.2528,-0.2529,-0.253,-0.2501,0,0,-0.2535,-0.2535,0,0,0,0,0,0,0,0,-0.241,-0.2408,-0.2403,-0.2406,-0.2409,-0.2427,-0.2444,-0.2439,-0.2445,-0.2428,-0.245,-0.2452,-0.2501,-0.2505,-0.2498,-0.2504,-0.2508,-0.2535,-0.2536,-0.2536,-0.2537,0,0,0,0,0,0,0,-0.241,-0.2408,-0.2383,-0.2403,-0.2407,-0.2435,-0.2436,-0.2443,-0.2451,-0.2429,-0.2434,-0.2443,-0.2503,-0.2496,-0.25,-0.2509,-0.2535,-0.2536,-0.2537,-0.2537,-0.2527,-0.2526,0,0,0,0,0,0,-0.2412,-0.2407,-0.2382,-0.2384,-0.242,-0.2433,-0.2434,-0.2416,-0.245,-0.2458,-0.2441,-0.2445,-0.2493,-0.2499,-0.2503,-0.2503,-0.2536,-0.2537,-0.2538,-0.2528,-0.2527,-0.2526,0,0,0,0,0,0,-0.2412,-0.2408,-0.2382,-0.2402,-0.2401,-0.2431,-0.241,-0.2415,-0.2419,-0.2459,-0.2468,-0.2443,-0.2495,-0.2502,-0.2506,-0.2506,-0.2538,-0.2539,-0.2529,-0.2528,-0.2526,-0.2483,0,0,0,0,0,0,-0.2412,-0.2407,-0.2391,-0.2401,-0.24,-0.2387,-0.2409,-0.2415,-0.2424,-0.2429,-0.2462,-0.2471,-0.2497,-0.2504,-0.2508,-0.2509,-0.254,-0.2531,-0.2529,-0.2527,-0.2486,-0.248,-0.2475,0,0,0,0,0,-0.2413,-0.2381,-0.239,-0.2388,-0.2378,-0.2387,-0.2388,-0.2414,-0.2422,-0.2423,-0.2435,-0.2471,-0.2495,-0.2503,-0.2508,-0.251,-0.2532,-0.2529,-0.2527,-0.2488,-0.2481,-0.2475,0,0,0,0,0,0,-0.2381,-0.2383,-0.2393,-0.2361,-0.2381,-0.2397,-0.2389,-0.2408,-0.2414,-0.2416,-0.245,-0.2459,-0.2466,-0.2483,-0.2493,-0.2499,-0.2521,-0.252,-0.249,-0.2484,-0.2478,-0.2475,-0.2541,0,0,0,0,0,-0.2367,-0.2347,-0.2366,-0.2342,-0.2343,-0.2364,-0.2369,-0.239,-0.2401,-0.2406,-0.2428,-0.2444,-0.2454,-0.2466,-0.2478,-0.2475,-0.2477,-0.2479,-0.2474,-0.247,-0.2468,-0.2446,-0.2438,-0.2518,-0.2518,-0.2518,0,0,-0.2351,-0.2347,-0.2338,-0.2335,-0.234,-0.2347,-0.2369,-0.2373,-0.2386,-0.2412,-0.2417,-0.2426,-0.2447,-0.2448,-0.2453,-0.2467,-0.2448,-0.2467,-0.2463,-0.2463,-0.2442,-0.2435,-0.2428,-0.2516,-0.2516,-0.2517,0,0,-0.2318,-0.2298,-0.2282,-0.2292,-0.2309,-0.2325,-0.2328,-0.2346,-0.2359,-0.2366,-0.2383,-0.2378,-0.2406,-0.241,-0.2418,-0.2384,-0.2418,-0.2402,-0.2378,-0.2356,-0.2349,-0.2343,-0.2337,-0.2332,-0.2403,-0.2403,-0.2402,0,-0.2297,-0.2281,-0.2282,-0.2276,-0.2285,-0.2315,-0.2317,-0.2327,-0.2351,-0.2356,-0.2368,-0.2371,-0.2384,-0.2377,-0.2368,-0.2373,-0.2376,-0.2403,-0.2349,-0.2343,-0.2338,-0.2334,-0.2328,-0.24,-0.24,-0.2401,-0.2401,0,-0.2273,-0.2259,-0.2244,-0.2249,-0.2258,-0.2259,-0.2286,-0.2295,-0.2313,-0.233,-0.2328,-0.2326,-0.2333,-0.2333,-0.2343,-0.2316,-0.2335,-0.2342,-0.2366,-0.2327,-0.2325,-0.232,-0.2397,-0.2398,-0.2398,-0.2399,0,0,-0.2213,-0.2228,-0.2223,-0.223,-0.2246,-0.2252,-0.2261,-0.2283,-0.2297,-0.23,-0.2307,-0.229,-0.2291,-0.2297,-0.2301,-0.2278,-0.2236,-0.2296,-0.2296,-0.2293,-0.2203,-0.2257,-0.2257,-0.224,-0.2239,-0.2238,-0.2217,0,-0.2194,-0.2196,-0.2205,-0.2207,-0.2208,-0.2232,-0.2243,-0.2266,-0.229,-0.2303,-0.2286,-0.2292,-0.228,-0.2282,-0.2251,-0.2252,-0.222,-0.2242,-0.2239,-0.2239,-0.2294,-0.2251,-0.2255,-0.224,-0.2212,-0.2211,-0.221,0,-0.2168,-0.2174,-0.218,-0.2199,-0.2199,-0.2206,-0.2235,-0.2251,-0.2273,-0.2287,-0.2279,-0.2289,-0.2256,-0.225,-0.2203,-0.2224,-0.2203,-0.2192,-0.2191,-0.2254,-0.2283,-0.2274,-0.2232,-0.2161,-0.2202,-0.2203,-0.2203,0,-0.2142,-0.2151,-0.2162,-0.2166,-0.2192,-0.2194,-0.221,-0.224,-0.2259,-0.2275,-0.2295,-0.2266,-0.2262,-0.2219,-0.2203,-0.2204,-0.2162,-0.2161,-0.218,-0.2185,-0.2193,-0.2201,-0.2085,-0.2104,-0.2104,-0.2104,-0.2104,0,-0.2114,-0.211,-0.2151,-0.2149,-0.216,-0.2178,-0.2192,-0.2213,-0.2241,-0.2268,-0.2277,-0.2303,-0.2254,-0.2243,-0.2205,-0.2189,-0.2158,-0.2169,-0.2177,-0.218,-0.2186,-0.2133,-0.2132,-0.2103,-0.2103,-0.2103,-0.2104,0,-0.206,-0.2097,-0.21,-0.2132,-0.2144,-0.2144,-0.2176,-0.219,-0.2228,-0.2265,-0.227,-0.2316,-0.2325,-0.2285,-0.2237,-0.2208,-0.2159,-0.217,-0.2189,-0.2201,-0.2172,-0.2171,-0.2105,-0.2098,-0.219,-0.2191,-0.2192,0,-0.203,-0.2031,-0.2078,-0.2086,-0.2092,-0.2106,-0.212,-0.2166,-0.2194,-0.2288,-0.2306,-0.2349,-0.2414,-0.2382,-0.2344,-0.2297,-0.2204,-0.2226,-0.2217,-0.2164,-0.2167,-0.2141,-0.2137,-0.2205,-0.2206,-0.2206,-0.2207,0,-0.1944,-0.197,-0.1975,-0.2015,-0.2032,-0.2064,-0.2094,-0.2132,-0.2204,-0.2272,-0.239,-0.2466,-0.2506,-0.2521,-0.2459,-0.2391,-0.2207,-0.2244,-0.2162,-0.2151,-0.2138,-0.2139,-0.2236,-0.2214,-0.2214,-0.2213,-0.2213,-0.2212,-0.1861,-0.1855,-0.1885,-0.191,-0.1956,-0.2019,-0.2018,-0.2102,-0.2184,-0.2279,-0.242,-0.25,-0.2563,-0.2542,-0.251,-0.2344,-0.2328,-0.2209,-0.2207,-0.2179,-0.2183,-0.2318,-0.2329,-0.2329,-0.2329,-0.2329,-0.2329,0,-0.1742,-0.1757,-0.1778,-0.1824,-0.1859,-0.1914,-0.1988,-0.199,-0.2086,-0.2208,-0.2336,-0.2461,-0.25,-0.247,-0.2405,-0.2314,-0.2249,-0.2157,-0.2079,-0.2074,-0.2155,-0.2166,-0.2174,-0.2174,-0.2174,-0.2174,-0.2174,-0.2174,-0.1672,-0.165,-0.1675,-0.1705,-0.1752,-0.1761,-0.179,-0.1836,-0.1889,-0.1994,-0.2066,-0.2232,-0.2264,-0.2417,-0.2293,-0.2179,-0.2083,-0.2023,-0.1993,-0.2002,-0.2004,-0.2006,-0.2009,-0.1985,-0.1985,-0.188,-0.1879,-0.1879]},{"header":{"parameterUnit":"m.s-1","parameterCategory":2,"la1":30.2991,"la2":30.254,"lo1":-89.0895,"lo2":-89.0444,"dy":0.0017,"dx":0.0017,"nx":28,"ny":28,"refTime":"2023-08-14T21:00:00:Z","depth":"0","parameterNumber":3,"parameterNumberName":"V-component_of_CURRENTS"},"data":[0,0,0,0,0,0,0,0,0,0,0,0,0,0,0,0,0,0,0,0,0,0,0,0,0,0,0,0,0,0,0,0,0,0,0,0,0,0,0,0,0,0,0,0,0,0,0,0,0,0,0,0,0,0,0,0,0,0,-0.0676,-0.0676,0,-0.0624,-0.0623,-0.0622,-0.0606,-0.0607,-0.0607,-0.0607,-0.0489,-0.0486,-0.0483,0,0,0,0,0,0,0,0,0,0,0,0,0,-0.0708,-0.0708,-0.0676,-0.0676,-0.0675,-0.0624,-0.0623,-0.0622,-0.0606,-0.0607,-0.0607,-0.0607,-0.049,-0.0486,-0.0482,0,0,0,0,0,0,0,0,0,0,0,0,0,-0.0678,-0.0708,-0.0676,-0.0661,-0.066,-0.0624,-0.0623,-0.0622,-0.0606,-0.0607,-0.0607,-0.0608,-0.0492,-0.0487,-0.0482,-0.044,0,0,-0.0466,-0.0464,0,0,0,0,0,0,0,0,-0.068,-0.0677,-0.0664,-0.0662,-0.066,-0.0623,-0.0591,-0.0558,-0.0606,-0.0626,-0.0607,-0.0608,-0.0528,-0.052,-0.0509,-0.0435,-0.043,-0.0465,-0.0462,-0.046,-0.0459,0,0,0,0,0,0,0,-0.0682,-0.0679,-0.0655,-0.0663,-0.0661,-0.0639,-0.0635,-0.0585,-0.0573,-0.0624,-0.0623,-0.0618,-0.0526,-0.0514,-0.0506,-0.0428,-0.0466,-0.0461,-0.0458,-0.0456,-0.0306,-0.0305,0,0,0,0,0,0,-0.0692,-0.0681,-0.0656,-0.0653,-0.0672,-0.0638,-0.0634,-0.0634,-0.0575,-0.0567,-0.0618,-0.0617,-0.0523,-0.0512,-0.0501,-0.0449,-0.046,-0.0455,-0.0452,-0.0307,-0.0305,-0.0305,0,0,0,0,0,0,-0.0693,-0.0691,-0.0658,-0.0666,-0.0661,-0.0637,-0.0636,-0.0632,-0.0618,-0.0571,-0.0562,-0.0607,-0.0522,-0.0509,-0.0457,-0.0444,-0.0453,-0.0448,-0.0308,-0.0306,-0.0305,-0.0344,0,0,0,0,0,0,-0.0695,-0.0692,-0.0693,-0.0667,-0.0661,-0.0637,-0.0636,-0.0631,-0.0614,-0.0613,-0.0558,-0.0549,-0.0522,-0.0465,-0.0452,-0.0437,-0.0444,-0.0309,-0.0307,-0.0305,-0.0344,-0.0344,-0.0344,0,0,0,0,0,-0.0696,-0.0693,-0.0693,-0.069,-0.0664,-0.0637,-0.0631,-0.0615,-0.0613,-0.0604,-0.057,-0.055,-0.0445,-0.046,-0.0445,-0.0429,-0.031,-0.0307,-0.0306,-0.0343,-0.0344,-0.0344,0,0,0,0,0,0,-0.0697,-0.069,-0.069,-0.0683,-0.0663,-0.0634,-0.0623,-0.0612,-0.0578,-0.0575,-0.0536,-0.0523,-0.0476,-0.0441,-0.0459,-0.0379,-0.0374,-0.0369,-0.0408,-0.0408,-0.0408,-0.0391,-0.044,0,0,0,0,0,-0.0701,-0.0704,-0.0685,-0.0678,-0.067,-0.0646,-0.0633,-0.0621,-0.059,-0.0576,-0.054,-0.0496,-0.0455,-0.0424,-0.0385,-0.0332,-0.0302,-0.0312,-0.0312,-0.0313,-0.0288,-0.0242,-0.0236,-0.0298,-0.0298,-0.0298,0,0,-0.0698,-0.0695,-0.0696,-0.0679,-0.0663,-0.0645,-0.0639,-0.0617,-0.0595,-0.0565,-0.0523,-0.0496,-0.0443,-0.0397,-0.0372,-0.0365,-0.0283,-0.031,-0.0311,-0.0285,-0.0239,-0.0234,-0.0228,-0.0297,-0.0297,-0.0297,0,0,-0.0694,-0.0692,-0.0694,-0.0679,-0.0659,-0.064,-0.0635,-0.0605,-0.0586,-0.0541,-0.0523,-0.0479,-0.0415,-0.0375,-0.0346,-0.0314,-0.0293,-0.0313,-0.0291,-0.0249,-0.0243,-0.0238,-0.0216,-0.0208,-0.0306,-0.0307,-0.0307,0,-0.069,-0.0692,-0.0685,-0.0678,-0.0665,-0.0639,-0.0627,-0.0596,-0.0553,-0.0529,-0.0528,-0.0434,-0.0395,-0.033,-0.0327,-0.0312,-0.0299,-0.0302,-0.025,-0.0244,-0.0238,-0.0216,-0.0207,-0.0308,-0.0308,-0.0308,-0.0308,0,-0.0688,-0.0685,-0.0679,-0.0668,-0.0651,-0.0633,-0.0599,-0.057,-0.0545,-0.0514,-0.0452,-0.0403,-0.0344,-0.0333,-0.0316,-0.0258,-0.0269,-0.0267,-0.0256,-0.0235,-0.0213,-0.0203,-0.031,-0.031,-0.0309,-0.0309,0,0,-0.0686,-0.0683,-0.068,-0.0679,-0.0647,-0.0633,-0.0589,-0.0543,-0.0516,-0.0461,-0.0418,-0.0343,-0.0323,-0.0287,-0.0267,-0.0222,-0.0182,-0.023,-0.0227,-0.0218,-0.011,-0.0111,-0.01,-0.0188,-0.0186,-0.0184,-0.0122,0,-0.0684,-0.0685,-0.0676,-0.0659,-0.0654,-0.0619,-0.059,-0.0544,-0.0496,-0.0446,-0.0373,-0.0329,-0.0304,-0.0291,-0.0237,-0.02,-0.0154,-0.02,-0.0121,-0.0118,-0.0129,-0.0087,-0.0065,-0.0007,-0.0112,-0.011,-0.0109,0,-0.0685,-0.0687,-0.0685,-0.0673,-0.0667,-0.0651,-0.0603,-0.057,-0.0488,-0.0455,-0.0379,-0.0334,-0.0249,-0.0245,-0.0132,-0.0173,-0.0133,-0.01,-0.0097,-0.0067,-0.0098,-0.0037,0.0015,0.0172,-0.0094,-0.0095,-0.0096,0,-0.0703,-0.069,-0.0696,-0.0689,-0.0668,-0.0655,-0.0635,-0.0572,-0.0553,-0.0458,-0.0437,-0.0325,-0.0285,-0.0198,-0.0117,-0.0132,-0.0008,-0.002,0.0025,0.0024,0.008,0.0081,0.0294,0.0072,0.0072,0.0072,0.0072,0,-0.071,-0.0711,-0.0708,-0.0709,-0.0714,-0.0685,-0.0673,-0.0632,-0.0582,-0.057,-0.0451,-0.0421,-0.0274,-0.0189,-0.0113,-0.0009,0.0002,0.0053,0.0055,0.0064,0.0062,0.0231,0.0297,0.0074,0.0074,0.0073,0.0073,0,-0.0733,-0.0731,-0.0736,-0.0724,-0.0727,-0.0729,-0.0725,-0.0721,-0.066,-0.0639,-0.0616,-0.0488,-0.037,-0.0225,-0.0087,-0.0015,0.0185,0.0117,0.011,0.0112,0.0295,0.0355,0.0576,0.0683,0.0187,0.0187,0.0188,0,-0.0752,-0.0758,-0.0761,-0.078,-0.0779,-0.0785,-0.0806,-0.0767,-0.0774,-0.0696,-0.0702,-0.0561,-0.0481,-0.025,-0.0065,0.0105,0.0225,0.0202,0.0201,0.0339,0.0409,0.0458,0.0536,0.0249,0.025,0.0251,0.0252,0,-0.0782,-0.0781,-0.0786,-0.0833,-0.0861,-0.0896,-0.092,-0.0945,-0.0911,-0.0893,-0.0861,-0.0779,-0.0504,-0.0271,-0.0009,0.0086,0.0341,0.0221,0.0387,0.0512,0.0561,0.0651,0.0156,0.0259,0.0258,0.0257,0.0257,0.0257,-0.0806,-0.082,-0.0842,-0.0888,-0.0943,-0.1025,-0.1071,-0.1104,-0.1141,-0.1127,-0.102,-0.0885,-0.0457,-0.0067,0.0077,0.0432,0.0415,0.0507,0.0576,0.0617,0.0724,0.0234,0.0321,0.032,0.032,0.032,0.032,0,-0.0835,-0.0862,-0.0907,-0.0983,-0.1085,-0.1086,-0.117,-0.1226,-0.1309,-0.1224,-0.1181,-0.0741,-0.0332,0.0099,0.0628,0.0797,0.0858,0.0871,0.0976,0.1045,0.0635,0.0642,0.0776,0.0776,0.0776,0.0775,0.0775,0.0775,-0.0851,-0.0902,-0.0928,-0.1104,-0.1178,-0.1318,-0.1377,-0.1437,-0.1406,-0.127,-0.1031,-0.084,-0.0169,0.0724,0.1219,0.1228,0.1418,0.1345,0.1477,0.1211,0.1183,0.1156,0.1182,0.1428,0.1428,0.1884,0.1888,0.1892]}],[{"header":{"parameterUnit":"m.s-1","parameterCategory":2,"la1":30.2991,"la2":30.254,"lo1":-89.0895,"lo2":-89.0444,"dy":0.0017,"dx":0.0017,"nx":28,"ny":28,"refTime":"2023-08-14T21:00:00:Z","depth":"2","parameterNumber":2,"parameterNumberName":"U-component_of_CURRENTS"},"data":[0,0,0,0,0,0,0,0,0,0,0,0,0,0,0,0,0,0,0,0,0,0,0,0,0,0,0,0,0,0,0,0,0,0,0,0,0,0,0,0,0,0,0,0,0,0,0,0,0,0,0,0,0,0,0,0,0,0,-0.213,-0.2131,0,-0.2149,-0.2148,-0.2148,-0.2169,-0.2171,-0.2172,-0.2173,-0.2181,-0.218,-0.2179,0,0,0,0,0,0,0,0,0,0,0,0,0,-0.2126,-0.2125,-0.213,-0.2131,-0.2132,-0.2149,-0.2148,-0.2148,-0.2169,-0.2171,-0.2172,-0.2174,-0.2181,-0.218,-0.2179,0,0,0,0,0,0,0,0,0,0,0,0,0,-0.2125,-0.2125,-0.2129,-0.2152,-0.2155,-0.2149,-0.2148,-0.2147,-0.2169,-0.2171,-0.2173,-0.2174,-0.2182,-0.218,-0.2179,-0.2134,0,0,-0.2175,-0.2174,0,0,0,0,0,0,0,0,-0.2125,-0.2124,-0.2148,-0.2151,-0.2154,-0.2167,-0.2151,-0.2146,-0.2168,-0.2153,-0.2173,-0.2175,-0.218,-0.2179,-0.2165,-0.2134,-0.2134,-0.2174,-0.2174,-0.2173,-0.2173,0,0,0,0,0,0,0,-0.2125,-0.2124,-0.2127,-0.2149,-0.2153,-0.2167,-0.2167,-0.2149,-0.2148,-0.2155,-0.2159,-0.2176,-0.2181,-0.2166,-0.2165,-0.2134,-0.2174,-0.2173,-0.2172,-0.2172,-0.2191,-0.2193,0,0,0,0,0,0,-0.214,-0.2123,-0.2127,-0.2129,-0.2155,-0.2166,-0.2166,-0.2153,-0.2149,-0.2153,-0.2174,-0.2177,-0.2168,-0.2167,-0.2166,-0.2184,-0.2173,-0.2172,-0.2171,-0.219,-0.2192,-0.2193,0,0,0,0,0,0,-0.2139,-0.2138,-0.2126,-0.2137,-0.2137,-0.2165,-0.215,-0.2153,-0.2163,-0.2166,-0.2168,-0.2186,-0.2169,-0.2168,-0.2193,-0.2183,-0.2171,-0.217,-0.2188,-0.2191,-0.2192,-0.2175,0,0,0,0,0,0,-0.2138,-0.2137,-0.2122,-0.2136,-0.2138,-0.2144,-0.2149,-0.2152,-0.2174,-0.2178,-0.2176,-0.2177,-0.217,-0.2196,-0.2192,-0.218,-0.2169,-0.2187,-0.2189,-0.2192,-0.2174,-0.2177,-0.2179,0,0,0,0,0,-0.2137,-0.2111,-0.212,-0.2121,-0.2118,-0.2145,-0.2146,-0.2166,-0.2173,-0.218,-0.2196,-0.2179,-0.2209,-0.2195,-0.2191,-0.2178,-0.2185,-0.2189,-0.2192,-0.2173,-0.2176,-0.2179,0,0,0,0,0,0,-0.2086,-0.2113,-0.2122,-0.21,-0.2135,-0.2153,-0.2151,-0.2173,-0.2185,-0.2189,-0.219,-0.2193,-0.2206,-0.2208,-0.2193,-0.2199,-0.2195,-0.2197,-0.2183,-0.2186,-0.2188,-0.217,-0.2168,0,0,0,0,0,-0.2073,-0.2068,-0.2104,-0.2089,-0.2102,-0.2128,-0.2139,-0.2162,-0.2183,-0.219,-0.2195,-0.2204,-0.2207,-0.2214,-0.2213,-0.2212,-0.22,-0.2208,-0.221,-0.2211,-0.2198,-0.218,-0.2178,-0.2203,-0.2203,-0.2203,0,0,-0.2063,-0.2064,-0.207,-0.2081,-0.2095,-0.2119,-0.2136,-0.216,-0.2179,-0.2186,-0.2198,-0.2205,-0.2212,-0.2215,-0.2221,-0.2219,-0.2204,-0.2215,-0.2216,-0.2202,-0.2183,-0.218,-0.2177,-0.2205,-0.2205,-0.2204,0,0,-0.2048,-0.2028,-0.2036,-0.2054,-0.209,-0.211,-0.2127,-0.216,-0.217,-0.2194,-0.2204,-0.2213,-0.2222,-0.2219,-0.222,-0.2235,-0.2213,-0.2245,-0.2235,-0.2219,-0.2215,-0.2212,-0.2205,-0.2202,-0.2248,-0.2248,-0.2248,0,-0.2025,-0.203,-0.2045,-0.2052,-0.2069,-0.2112,-0.2135,-0.2145,-0.2187,-0.2193,-0.2205,-0.2213,-0.2214,-0.2212,-0.2224,-0.2231,-0.223,-0.2217,-0.2217,-0.2213,-0.221,-0.2204,-0.22,-0.2248,-0.2248,-0.2248,-0.2248,0,-0.2026,-0.2032,-0.2031,-0.2056,-0.2077,-0.2095,-0.2134,-0.2153,-0.2173,-0.2188,-0.2196,-0.2198,-0.2206,-0.2209,-0.2217,-0.2203,-0.2212,-0.2215,-0.2198,-0.2206,-0.22,-0.2196,-0.2247,-0.2247,-0.2247,-0.2247,0,0,-0.1982,-0.2023,-0.2032,-0.2046,-0.2076,-0.2101,-0.2122,-0.2156,-0.2175,-0.2185,-0.2195,-0.2187,-0.2189,-0.2191,-0.2198,-0.2183,-0.2161,-0.2193,-0.2192,-0.2166,-0.2135,-0.2172,-0.2172,-0.2164,-0.2164,-0.2163,-0.2143,0,-0.1981,-0.2006,-0.2028,-0.2065,-0.2083,-0.211,-0.2128,-0.216,-0.2185,-0.2202,-0.2186,-0.2195,-0.2183,-0.2191,-0.217,-0.2172,-0.2149,-0.2167,-0.2149,-0.2149,-0.2163,-0.2167,-0.197,-0.1939,-0.2139,-0.2138,-0.2138,0,-0.1986,-0.2001,-0.2036,-0.2072,-0.2082,-0.2105,-0.2145,-0.2165,-0.2189,-0.2201,-0.2197,-0.2204,-0.2183,-0.2175,-0.2139,-0.2156,-0.2137,-0.2127,-0.2127,-0.2159,-0.2179,-0.1964,-0.1924,-0.2131,-0.2131,-0.2132,-0.2132,0,-0.1972,-0.2011,-0.2038,-0.2045,-0.209,-0.2104,-0.2126,-0.2163,-0.2178,-0.22,-0.222,-0.2197,-0.2197,-0.2159,-0.2146,-0.2143,-0.2112,-0.2106,-0.2113,-0.2116,-0.1942,-0.1932,-0.2059,-0.2059,-0.2059,-0.2059,-0.2059,0,-0.1953,-0.1978,-0.2033,-0.2042,-0.2065,-0.2096,-0.2122,-0.2145,-0.2176,-0.2201,-0.2211,-0.2239,-0.2194,-0.2186,-0.215,-0.213,-0.211,-0.2105,-0.211,-0.1938,-0.1928,-0.2089,-0.2093,-0.2058,-0.2059,-0.2059,-0.2059,0,-0.1927,-0.197,-0.1994,-0.2043,-0.2058,-0.2069,-0.2108,-0.2125,-0.2166,-0.2203,-0.2209,-0.2256,-0.2266,-0.2228,-0.2187,-0.215,-0.2118,-0.211,-0.1926,-0.1911,-0.2129,-0.2133,-0.2108,-0.2109,-0.211,-0.2111,-0.2112,0,-0.1906,-0.1919,-0.1981,-0.1993,-0.201,-0.2035,-0.2052,-0.2102,-0.2131,-0.2227,-0.2245,-0.229,-0.2333,-0.2299,-0.2224,-0.2161,-0.2163,-0.1937,-0.1896,-0.2125,-0.2132,-0.2134,-0.2136,-0.165,-0.1647,-0.1645,-0.1642,0,-0.1839,-0.1873,-0.1888,-0.1926,-0.1951,-0.1992,-0.203,-0.2064,-0.214,-0.2197,-0.2308,-0.2362,-0.236,-0.2239,-0.2156,-0.2072,-0.1935,-0.189,-0.2134,-0.1705,-0.1701,-0.1707,-0.1721,-0.1619,-0.1621,-0.1623,-0.1624,-0.1625,-0.1764,-0.1763,-0.1797,-0.182,-0.1872,-0.1946,-0.1947,-0.2022,-0.209,-0.2139,-0.2305,-0.2297,-0.2156,-0.1995,-0.1904,-0.1804,-0.1923,-0.1753,-0.1756,-0.1763,-0.175,-0.1752,-0.1676,-0.1678,-0.168,-0.1682,-0.1684,0,-0.1645,-0.1666,-0.1684,-0.1733,-0.177,-0.1836,-0.1915,-0.1899,-0.196,-0.2022,-0.2118,-0.1888,-0.1814,-0.1706,-0.1567,-0.154,-0.146,-0.1427,-0.1297,-0.132,-0.1341,-0.1303,-0.1112,-0.1111,-0.111,-0.1109,0,0,-0.1579,-0.1555,-0.1575,-0.1604,-0.1656,-0.1678,-0.171,-0.1704,-0.1717,-0.1697,-0.166,-0.1752,-0.1691,-0.1405,-0.1312,-0.1231,-0.1263,-0.1158,-0.1607,-0.1478,-0.1498,-0.151,-0.1476,0,0,0,0,0]},{"header":{"parameterUnit":"m.s-1","parameterCategory":2,"la1":30.2991,"la2":30.254,"lo1":-89.0895,"lo2":-89.0444,"dy":0.0017,"dx":0.0017,"nx":28,"ny":28,"refTime":"2023-08-14T21:00:00:Z","depth":"2","parameterNumber":3,"parameterNumberName":"V-component_of_CURRENTS"},"data":[0,0,0,0,0,0,0,0,0,0,0,0,0,0,0,0,0,0,0,0,0,0,0,0,0,0,0,0,0,0,0,0,0,0,0,0,0,0,0,0,0,0,0,0,0,0,0,0,0,0,0,0,0,0,0,0,0,0,-0.0392,-0.0393,0,-0.0327,-0.0326,-0.0324,-0.0263,-0.0263,-0.0264,-0.0264,-0.0115,-0.0111,-0.0106,0,0,0,0,0,0,0,0,0,0,0,0,0,-0.0363,-0.0363,-0.0392,-0.0393,-0.0393,-0.0328,-0.0326,-0.0323,-0.0263,-0.0263,-0.0264,-0.0264,-0.0116,-0.0111,-0.0106,0,0,0,0,0,0,0,0,0,0,0,0,0,-0.0331,-0.0363,-0.0392,-0.0365,-0.0363,-0.0328,-0.0325,-0.0323,-0.0262,-0.0263,-0.0264,-0.0265,-0.0118,-0.0112,-0.0105,-0.0049,0,0,-0.0085,-0.0082,0,0,0,0,0,0,0,0,-0.0333,-0.0331,-0.0369,-0.0367,-0.0365,-0.0316,-0.0261,-0.0232,-0.0262,-0.0286,-0.0264,-0.0265,-0.0183,-0.0171,-0.0138,-0.0042,-0.0035,-0.0084,-0.008,-0.0077,-0.0075,0,0,0,0,0,0,0,-0.0336,-0.0333,-0.0352,-0.0369,-0.0367,-0.0323,-0.0319,-0.0254,-0.0219,-0.0284,-0.0283,-0.0297,-0.0179,-0.0145,-0.0135,-0.0033,-0.0084,-0.0078,-0.0074,-0.0072,0.0038,0.0037,0,0,0,0,0,0,-0.0376,-0.0336,-0.0355,-0.0352,-0.0366,-0.0324,-0.0319,-0.032,-0.0221,-0.0212,-0.0297,-0.0295,-0.0156,-0.0142,-0.0129,-0.0108,-0.0077,-0.0071,-0.0067,0.0039,0.0038,0.0037,0,0,0,0,0,0,-0.0375,-0.0378,-0.0358,-0.0354,-0.035,-0.0326,-0.0326,-0.0318,-0.0299,-0.0235,-0.022,-0.029,-0.0156,-0.0139,-0.0124,-0.01,-0.0068,-0.0062,0.004,0.0039,0.0037,-0.0033,0,0,0,0,0,0,-0.0374,-0.0377,-0.0376,-0.0356,-0.0353,-0.0349,-0.0327,-0.0317,-0.0313,-0.031,-0.0223,-0.021,-0.0155,-0.0135,-0.0118,-0.0091,-0.0057,0.0042,0.004,0.0038,-0.003,-0.0037,-0.0044,0,0,0,0,0,-0.0373,-0.0372,-0.0376,-0.0379,-0.0357,-0.0351,-0.0342,-0.0319,-0.0313,-0.0302,-0.028,-0.0213,-0.0135,-0.0132,-0.0111,-0.0081,0.0043,0.004,0.0038,-0.0027,-0.0036,-0.0044,0,0,0,0,0,0,-0.0343,-0.0367,-0.037,-0.0372,-0.0374,-0.0347,-0.0339,-0.0329,-0.0297,-0.0297,-0.0234,-0.0219,-0.0189,-0.0142,-0.014,-0.006,-0.003,-0.0028,-0.0086,-0.0094,-0.0101,-0.0071,-0.0051,0,0,0,0,0,-0.0345,-0.036,-0.037,-0.0372,-0.0379,-0.0361,-0.0354,-0.0344,-0.0327,-0.0312,-0.0265,-0.0218,-0.0176,-0.0149,-0.0098,-0.0059,-0.0014,-0.0026,-0.0033,-0.0039,-0.0005,0.0036,0.0037,0.0029,0.0029,0.0029,0,0,-0.0347,-0.0354,-0.0368,-0.037,-0.0364,-0.0369,-0.0354,-0.0355,-0.0343,-0.03,-0.0265,-0.0237,-0.0176,-0.0138,-0.0117,-0.0098,-0.0023,-0.0042,-0.0048,-0.0009,0.0034,0.0035,0.0037,0.0027,0.0027,0.0028,0,0,-0.0362,-0.0355,-0.0382,-0.0379,-0.0391,-0.0376,-0.0388,-0.0374,-0.0348,-0.033,-0.0302,-0.0276,-0.0202,-0.0156,-0.0123,-0.0137,-0.0065,-0.0125,-0.0122,-0.0085,-0.0083,-0.0081,-0.0058,-0.0053,-0.0124,-0.0124,-0.0124,0,-0.036,-0.0381,-0.0385,-0.0397,-0.0399,-0.0389,-0.0404,-0.037,-0.0352,-0.033,-0.0329,-0.024,-0.0195,-0.0142,-0.0154,-0.0143,-0.0126,-0.0096,-0.0092,-0.0088,-0.0084,-0.0061,-0.0055,-0.0128,-0.0128,-0.0127,-0.0127,0,-0.0388,-0.0404,-0.0413,-0.0429,-0.0428,-0.0431,-0.0416,-0.0395,-0.0372,-0.034,-0.0291,-0.0247,-0.019,-0.0179,-0.0165,-0.0118,-0.0119,-0.0111,-0.0067,-0.0087,-0.0063,-0.0055,-0.0133,-0.0132,-0.0131,-0.013,0,0,-0.0407,-0.0429,-0.0441,-0.045,-0.044,-0.0446,-0.0421,-0.0392,-0.0372,-0.0325,-0.0287,-0.0222,-0.0199,-0.0161,-0.0141,-0.0106,-0.0086,-0.0103,-0.01,-0.0074,-0.0021,0.0011,0.0024,-0.009,-0.0089,-0.0087,-0.0027,0,-0.043,-0.0463,-0.0464,-0.049,-0.0504,-0.0473,-0.0454,-0.0423,-0.0376,-0.0331,-0.026,-0.0218,-0.0191,-0.0181,-0.0138,-0.0096,-0.0062,-0.0102,-0.0008,-0.0004,0.0033,0.0036,0.0023,0.008,-0.0019,-0.0017,-0.0016,0,-0.0469,-0.0481,-0.0514,-0.0521,-0.0526,-0.0531,-0.0494,-0.0471,-0.0394,-0.036,-0.029,-0.024,-0.0167,-0.0156,-0.0052,-0.0089,-0.0049,-0.0016,-0.0013,0.0064,0.0046,0.0091,0.0099,-0.0001,-0.0002,-0.0004,-0.0005,0,-0.0496,-0.0521,-0.0544,-0.0543,-0.0545,-0.0545,-0.0534,-0.0481,-0.0461,-0.0374,-0.0354,-0.025,-0.021,-0.0128,-0.0043,-0.0056,0.0062,0.0053,0.0126,0.0127,0.0167,0.017,0.0136,0.0136,0.0136,0.0136,0.0136,0,-0.0519,-0.0549,-0.056,-0.0575,-0.0593,-0.0581,-0.0583,-0.0547,-0.0502,-0.0492,-0.0376,-0.0346,-0.0203,-0.0118,-0.0042,0.0077,0.0068,0.0152,0.0159,0.0136,0.0135,0.0115,0.0111,0.0138,0.0137,0.0137,0.0137,0,-0.0567,-0.0573,-0.06,-0.0608,-0.0615,-0.0628,-0.0636,-0.0636,-0.0581,-0.0561,-0.054,-0.0414,-0.0293,-0.0149,-0.0014,0.0072,0.018,0.0218,0.0179,0.0184,0.0216,0.0208,0.0319,0.0321,0.0322,0.0324,0.0325,0,-0.0595,-0.0614,-0.0634,-0.0656,-0.0668,-0.0686,-0.0711,-0.0681,-0.069,-0.0616,-0.0622,-0.0479,-0.0365,-0.0121,0.0055,0.0236,0.0211,0.0309,0.0309,0.0246,0.0242,0.0231,0.0221,0.031,0.0311,0.0312,0.0313,0,-0.0641,-0.0648,-0.0665,-0.0709,-0.0746,-0.0793,-0.0825,-0.0848,-0.0821,-0.0791,-0.0745,-0.063,-0.0346,-0.011,0.0163,0.0253,0.0289,0.0332,0.0289,0.0269,0.0245,0.0238,0.0227,0.032,0.0319,0.0318,0.0318,0.0318,-0.0669,-0.0689,-0.0716,-0.0758,-0.0821,-0.0914,-0.0961,-0.0981,-0.1004,-0.0957,-0.0851,-0.0651,-0.0354,0.0055,0.0239,0.0392,0.0372,0.0402,0.0397,0.0392,0.0384,0.0364,0.0458,0.0458,0.0459,0.0459,0.0459,0,-0.0697,-0.0729,-0.077,-0.0847,-0.095,-0.0966,-0.1056,-0.1087,-0.1127,-0.1012,-0.0921,-0.0577,-0.0239,0.0047,0.0313,0.0489,0.0475,0.0499,0.0444,0.0436,0.0429,0.042,0.0506,0.0507,0.0508,0.0508,0,0,-0.0715,-0.076,-0.0782,-0.0951,-0.1031,-0.1178,-0.124,-0.1237,-0.1176,-0.1066,-0.0893,-0.0619,-0.0226,-0.0019,0.0212,0.0349,0.0333,0.036,0.03,0.0195,0.0186,0.0352,0.0328,0,0,0,0,0]}],[{"header":{"parameterUnit":"m.s-1","parameterCategory":2,"la1":30.2991,"la2":30.254,"lo1":-89.0895,"lo2":-89.0444,"dy":0.0017,"dx":0.0017,"nx":28,"ny":28,"refTime":"2023-08-14T21:00:00:Z","depth":"4","parameterNumber":2,"parameterNumberName":"U-component_of_CURRENTS"},"data":[0,0,0,0,0,0,0,0,0,0,0,0,0,0,0,0,0,0,0,0,0,0,0,0,0,0,0,0,0,0,0,0,0,0,0,0,0,0,0,0,0,0,0,0,0,0,0,0,0,0,0,0,0,0,0,0,0,0,-0.063,-0.0629,0,-0.0754,-0.0758,-0.0762,-0.0918,-0.0918,-0.0917,-0.0917,-0.1059,-0.1063,-0.1067,0,0,0,0,0,0,0,0,0,0,0,0,0,-0.0641,-0.0642,-0.063,-0.0629,-0.0628,-0.0754,-0.0758,-0.0763,-0.0918,-0.0917,-0.0917,-0.0917,-0.1057,-0.1062,-0.1067,0,0,0,0,0,0,0,0,0,0,0,0,0,-0.0716,-0.0642,-0.0631,-0.0698,-0.0703,-0.0753,-0.0759,-0.0764,-0.0918,-0.0917,-0.0917,-0.0917,-0.1056,-0.1062,-0.1068,-0.1114,0,0,-0.1086,-0.1089,0,0,0,0,0,0,0,0,-0.0712,-0.072,-0.0689,-0.0693,-0.0699,-0.0793,-0.0812,-0.0872,-0.0918,-0.0869,-0.0917,-0.0916,-0.0952,-0.0967,-0.1034,-0.1121,-0.1127,-0.1087,-0.109,-0.1093,-0.1095,0,0,0,0,0,0,0,-0.0706,-0.0715,-0.0711,-0.0687,-0.0693,-0.0758,-0.0771,-0.0828,-0.0935,-0.0873,-0.0877,-0.0842,-0.0959,-0.1028,-0.1038,-0.1129,-0.1087,-0.1092,-0.1096,-0.1098,-0.1432,-0.1437,0,0,0,0,0,0,-0.0624,-0.071,-0.0706,-0.0711,-0.067,-0.0756,-0.0772,-0.0788,-0.0934,-0.0947,-0.0842,-0.0848,-0.1018,-0.1031,-0.1043,-0.1254,-0.1093,-0.1099,-0.1102,-0.1427,-0.1433,-0.1439,0,0,0,0,0,0,-0.0626,-0.0625,-0.07,-0.0686,-0.0696,-0.0752,-0.0772,-0.079,-0.0902,-0.0905,-0.0925,-0.0935,-0.1018,-0.1035,-0.1112,-0.1254,-0.1101,-0.1107,-0.1421,-0.1429,-0.1436,-0.1579,0,0,0,0,0,0,-0.0627,-0.0627,-0.0652,-0.0682,-0.0693,-0.0752,-0.077,-0.0792,-0.0863,-0.0875,-0.099,-0.1001,-0.1019,-0.1103,-0.1118,-0.1259,-0.1112,-0.1414,-0.1425,-0.1434,-0.1567,-0.159,-0.161,0,0,0,0,0,-0.0628,-0.0651,-0.0655,-0.0653,-0.0714,-0.075,-0.077,-0.0825,-0.0868,-0.093,-0.0989,-0.1,-0.1179,-0.111,-0.1127,-0.1274,-0.141,-0.1422,-0.1433,-0.1558,-0.1586,-0.161,0,0,0,0,0,0,-0.0664,-0.0666,-0.0672,-0.0695,-0.072,-0.0766,-0.0818,-0.0857,-0.0967,-0.1019,-0.1029,-0.1044,-0.1204,-0.1196,-0.1119,-0.1403,-0.1313,-0.1329,-0.1403,-0.1429,-0.145,-0.1342,-0.1117,0,0,0,0,0,-0.0671,-0.0701,-0.0701,-0.072,-0.0743,-0.0799,-0.0833,-0.0896,-0.0955,-0.1012,-0.1072,-0.1163,-0.1266,-0.1301,-0.14,-0.1502,-0.1418,-0.1622,-0.1643,-0.1661,-0.1588,-0.1571,-0.1581,-0.1478,-0.1478,-0.1477,0,0,-0.0678,-0.0681,-0.0696,-0.0729,-0.0775,-0.0812,-0.0833,-0.0929,-0.1001,-0.1005,-0.116,-0.1257,-0.1317,-0.1473,-0.1542,-0.1473,-0.1662,-0.1676,-0.169,-0.1605,-0.1584,-0.1592,-0.16,-0.1486,-0.1484,-0.1483,0,0,-0.0693,-0.0731,-0.0764,-0.0784,-0.084,-0.0885,-0.0912,-0.1016,-0.1122,-0.1255,-0.1308,-0.1434,-0.1585,-0.1641,-0.1686,-0.1867,-0.1801,-0.1962,-0.195,-0.1939,-0.1944,-0.1947,-0.1891,-0.1888,-0.194,-0.1941,-0.1941,0,-0.0708,-0.0737,-0.0778,-0.0799,-0.0837,-0.0909,-0.098,-0.1069,-0.1193,-0.1287,-0.1329,-0.159,-0.166,-0.1784,-0.1856,-0.1917,-0.186,-0.1847,-0.1957,-0.1959,-0.1959,-0.19,-0.1895,-0.1949,-0.1948,-0.1947,-0.1946,0,-0.0715,-0.0759,-0.0784,-0.0838,-0.0907,-0.0982,-0.1076,-0.1206,-0.1354,-0.1436,-0.1666,-0.1761,-0.1867,-0.1984,-0.1965,-0.2053,-0.1999,-0.201,-0.1869,-0.1977,-0.1911,-0.1902,-0.1961,-0.1958,-0.1955,-0.1953,0,0,-0.0719,-0.0783,-0.0798,-0.0833,-0.0961,-0.1007,-0.1174,-0.1328,-0.1421,-0.1614,-0.1731,-0.1949,-0.1987,-0.2029,-0.2077,-0.2064,-0.2067,-0.2014,-0.201,-0.1913,-0.1989,-0.1831,-0.1805,-0.2086,-0.2085,-0.2084,-0.1951,0,-0.0732,-0.0763,-0.0844,-0.0926,-0.0965,-0.1115,-0.1245,-0.1409,-0.1566,-0.1682,-0.1839,-0.1956,-0.2004,-0.2061,-0.207,-0.2073,-0.2043,-0.2096,-0.1932,-0.1925,-0.1735,-0.179,-0.208,-0.1944,-0.1942,-0.194,-0.1939,0,-0.0728,-0.0751,-0.085,-0.0981,-0.1031,-0.1143,-0.1379,-0.1483,-0.1662,-0.1776,-0.1892,-0.1955,-0.1995,-0.2014,-0.2001,-0.2025,-0.1984,-0.1977,-0.1972,-0.1736,-0.1748,-0.181,-0.1922,-0.1923,-0.1924,-0.1925,-0.1926,0,-0.0676,-0.0769,-0.0863,-0.089,-0.1052,-0.1227,-0.1357,-0.1572,-0.1661,-0.1778,-0.182,-0.1909,-0.1928,-0.1915,-0.1884,-0.1931,-0.1819,-0.19,-0.1716,-0.1704,-0.1817,-0.1814,-0.1839,-0.1839,-0.1839,-0.184,-0.184,0,-0.0649,-0.0706,-0.086,-0.0884,-0.1058,-0.1216,-0.1421,-0.1537,-0.1687,-0.17,-0.182,-0.1755,-0.1891,-0.1849,-0.1836,-0.1707,-0.1776,-0.1664,-0.1648,-0.1894,-0.1901,-0.1812,-0.1811,-0.1835,-0.1836,-0.1837,-0.1838,0,-0.0598,-0.0669,-0.0737,-0.0937,-0.1037,-0.1163,-0.142,-0.1492,-0.1635,-0.1634,-0.1638,-0.1644,-0.1539,-0.1642,-0.1595,-0.161,-0.1533,-0.1464,-0.1659,-0.1664,-0.1444,-0.1453,-0.1267,-0.126,-0.1254,-0.1249,-0.1245,0,-0.0572,-0.0605,-0.0752,-0.0815,-0.0954,-0.1153,-0.1284,-0.1464,-0.146,-0.147,-0.1382,-0.1346,-0.1329,-0.1153,-0.1245,-0.125,-0.1258,-0.1262,-0.1408,-0.1375,-0.138,-0.1398,-0.1415,-0.1235,-0.1234,-0.1232,-0.1231,0,-0.0524,-0.0591,-0.0636,-0.0732,-0.0883,-0.095,-0.1106,-0.1106,-0.1201,-0.1325,-0.1106,-0.1082,-0.0963,-0.0953,-0.0991,-0.0979,-0.1305,-0.1201,-0.1217,-0.1354,-0.1336,-0.135,-0.1373,-0.121,-0.1213,-0.1215,-0.1216,0,-0.0498,-0.0506,-0.0549,-0.0659,-0.072,-0.0701,-0.0834,-0.0828,-0.0857,-0.093,-0.0783,-0.077,-0.0821,-0.0787,-0.0748,-0.0809,-0.0852,-0.0935,-0.0966,-0.099,-0.0978,-0.0919,-0.0601,0,0,0,0,0,-0.0447,-0.0448,-0.0487,-0.0522,-0.0529,-0.0576,-0.065,-0.0752,-0.0862,-0.0687,-0.0772,-0.0636,-0.0616,-0.0554,-0.0572,-0.064,-0.0864,-0.0663,-0.0977,-0.1097,-0.112,-0.1142,0,0,0,0,0,0,-0.0413,-0.0419,-0.0432,-0.0336,-0.0346,-0.0325,-0.036,-0.0457,-0.0361,-0.0502,-0.0451,-0.0617,-0.0558,-0.0594,-0.0551,-0.0571,-0.0767,-0.0712,-0.0712,-0.1083,-0.1105,-0.1124,-0.1154,0,0,0,0,0]},{"header":{"parameterUnit":"m.s-1","parameterCategory":2,"la1":30.2991,"la2":30.254,"lo1":-89.0895,"lo2":-89.0444,"dy":0.0017,"dx":0.0017,"nx":28,"ny":28,"refTime":"2023-08-14T21:00:00:Z","depth":"4","parameterNumber":3,"parameterNumberName":"V-component_of_CURRENTS"},"data":[0,0,0,0,0,0,0,0,0,0,0,0,0,0,0,0,0,0,0,0,0,0,0,0,0,0,0,0,0,0,0,0,0,0,0,0,0,0,0,0,0,0,0,0,0,0,0,0,0,0,0,0,0,0,0,0,0,0,-0.0317,-0.0318,0,-0.0371,-0.0371,-0.0372,-0.0333,-0.0331,-0.033,-0.0328,-0.0269,-0.0269,-0.0269,0,0,0,0,0,0,0,0,0,0,0,0,0,-0.0265,-0.0265,-0.0317,-0.0318,-0.0319,-0.0371,-0.0372,-0.0372,-0.0334,-0.0331,-0.0329,-0.0327,-0.0269,-0.0269,-0.0269,0,0,0,0,0,0,0,0,0,0,0,0,0,-0.03,-0.0266,-0.0317,-0.0305,-0.0305,-0.0371,-0.0372,-0.0372,-0.0334,-0.0331,-0.0329,-0.0326,-0.0269,-0.0269,-0.0269,-0.0322,0,0,-0.027,-0.027,0,0,0,0,0,0,0,0,-0.0298,-0.0302,-0.0307,-0.0306,-0.0306,-0.0343,-0.0332,-0.035,-0.0335,-0.0323,-0.0328,-0.0325,-0.0285,-0.0284,-0.0301,-0.0319,-0.0316,-0.027,-0.027,-0.027,-0.027,0,0,0,0,0,0,0,-0.0295,-0.03,-0.0338,-0.0308,-0.0307,-0.0326,-0.0328,-0.0336,-0.0316,-0.0324,-0.0321,-0.0328,-0.0284,-0.0302,-0.0299,-0.0315,-0.027,-0.027,-0.027,-0.027,-0.0306,-0.0307,0,0,0,0,0,0,-0.0287,-0.0297,-0.0337,-0.034,-0.0295,-0.0329,-0.033,-0.0334,-0.0318,-0.0314,-0.033,-0.0326,-0.0303,-0.0299,-0.0297,-0.0235,-0.027,-0.027,-0.027,-0.0305,-0.0306,-0.0307,0,0,0,0,0,0,-0.0286,-0.029,-0.0335,-0.032,-0.0327,-0.0332,-0.0336,-0.0336,-0.0347,-0.0324,-0.0317,-0.034,-0.0301,-0.0297,-0.032,-0.0237,-0.027,-0.027,-0.0304,-0.0305,-0.0307,-0.0189,0,0,0,0,0,0,-0.0284,-0.0289,-0.0299,-0.0319,-0.0327,-0.0373,-0.0339,-0.0339,-0.0355,-0.035,-0.0331,-0.0323,-0.0298,-0.0321,-0.032,-0.0237,-0.027,-0.0303,-0.0304,-0.0306,-0.0192,-0.0187,-0.0182,0,0,0,0,0,-0.0282,-0.0302,-0.0299,-0.0304,-0.0337,-0.0375,-0.0381,-0.0376,-0.0358,-0.0374,-0.0371,-0.0323,-0.0329,-0.0324,-0.0322,-0.0236,-0.0302,-0.0304,-0.0306,-0.0194,-0.0188,-0.0182,0,0,0,0,0,0,-0.0292,-0.0301,-0.0297,-0.0321,-0.0346,-0.0367,-0.039,-0.0386,-0.0401,-0.0397,-0.0363,-0.0358,-0.0327,-0.0344,-0.0338,-0.0263,-0.0297,-0.0299,-0.0212,-0.0206,-0.0201,-0.0225,-0.027,0,0,0,0,0,-0.0299,-0.0312,-0.0329,-0.0353,-0.0365,-0.0381,-0.0399,-0.0399,-0.0413,-0.0416,-0.0392,-0.0376,-0.0342,-0.0327,-0.0319,-0.0308,-0.03,-0.0253,-0.0247,-0.0242,-0.0269,-0.0202,-0.019,-0.0314,-0.0314,-0.0314,0,0,-0.0309,-0.032,-0.0326,-0.0356,-0.0375,-0.0416,-0.0385,-0.0421,-0.0449,-0.0409,-0.0428,-0.0364,-0.0344,-0.0303,-0.0289,-0.0299,-0.02,-0.0245,-0.0239,-0.027,-0.0202,-0.0189,-0.0178,-0.0315,-0.0315,-0.0315,0,0,-0.0343,-0.0348,-0.0371,-0.0395,-0.0429,-0.045,-0.046,-0.0477,-0.0475,-0.0485,-0.0439,-0.0365,-0.0339,-0.0288,-0.0261,-0.025,-0.0179,-0.0208,-0.0184,-0.0116,-0.0104,-0.0093,-0.0036,-0.0021,-0.0198,-0.0198,-0.0198,0,-0.0355,-0.0386,-0.0388,-0.0424,-0.0465,-0.0466,-0.0522,-0.053,-0.0546,-0.0534,-0.0483,-0.0374,-0.0332,-0.0264,-0.022,-0.0227,-0.0179,-0.0186,-0.0101,-0.0091,-0.0082,-0.0026,-0.0011,-0.0193,-0.0193,-0.0194,-0.0194,0,-0.0393,-0.0436,-0.0459,-0.0505,-0.0555,-0.06,-0.0626,-0.0632,-0.0601,-0.0573,-0.0485,-0.0399,-0.0312,-0.0252,-0.0214,-0.0109,-0.009,-0.0094,-0.0097,-0.0061,-0.0007,0.0007,-0.0185,-0.0187,-0.0188,-0.019,0,0,-0.0378,-0.0466,-0.0477,-0.0526,-0.0604,-0.0647,-0.0698,-0.0726,-0.0712,-0.063,-0.0578,-0.0434,-0.031,-0.0278,-0.0177,-0.0098,0.0056,-0.0042,-0.004,0.0048,0.023,0.0104,0.0107,0.0108,0.011,0.0112,0.0257,0,-0.0411,-0.049,-0.0547,-0.0656,-0.0707,-0.0752,-0.0795,-0.0812,-0.0767,-0.0705,-0.0563,-0.0449,-0.0345,-0.0219,-0.0126,-0.0008,0.0092,0.0017,0.0148,0.015,0.0063,0.0117,0.0118,0.0267,0.027,0.0272,0.0274,0,-0.0432,-0.0485,-0.0594,-0.072,-0.0748,-0.0813,-0.087,-0.0885,-0.0815,-0.0745,-0.0594,-0.048,-0.0314,-0.0223,0.0002,-0.0031,0.0115,0.0202,0.021,0.0046,0.0047,0.0208,0.0298,0.0296,0.0294,0.0293,0.0291,0,-0.0404,-0.0533,-0.0627,-0.0667,-0.0791,-0.0844,-0.0877,-0.087,-0.0863,-0.0716,-0.065,-0.047,-0.0329,-0.0154,0.0025,0.0067,0.0223,0.0292,0.0304,0.0298,0.0322,0.0309,0.0454,0.0454,0.0453,0.0453,0.0452,0,-0.0417,-0.0494,-0.0611,-0.065,-0.0756,-0.0816,-0.0864,-0.0851,-0.0795,-0.0765,-0.0611,-0.0536,-0.0291,-0.0186,-0.0005,0.0146,0.0208,0.0301,0.0323,0.0368,0.0357,0.0335,0.0319,0.0458,0.0457,0.0456,0.0455,0,-0.0395,-0.0468,-0.0573,-0.0696,-0.0752,-0.0792,-0.0878,-0.0876,-0.0796,-0.0747,-0.0682,-0.0549,-0.0402,-0.0258,-0.0008,0.0098,0.025,0.0292,0.0285,0.0305,0.0312,0.03,0.0383,0.0379,0.0376,0.0374,0.0372,0,-0.0399,-0.0442,-0.0591,-0.0663,-0.0736,-0.0803,-0.0866,-0.0853,-0.0838,-0.0766,-0.074,-0.0614,-0.0519,-0.0291,-0.0129,0.0113,0.0161,0.026,0.0346,0.029,0.0304,0.0296,0.0289,0.0368,0.0367,0.0366,0.0365,0,-0.0399,-0.0445,-0.0516,-0.0628,-0.0734,-0.0836,-0.0889,-0.0878,-0.0842,-0.0839,-0.0739,-0.0613,-0.0506,-0.0312,-0.0186,0.0008,0.0202,0.0234,0.0245,0.0327,0.0273,0.0288,0.0283,0.0356,0.0357,0.0358,0.0358,0,-0.0391,-0.043,-0.0497,-0.0605,-0.0713,-0.0785,-0.084,-0.0848,-0.083,-0.0767,-0.076,-0.0629,-0.0565,-0.0371,-0.0251,-0.0118,-0.0002,0.0127,0.0147,0.0159,0.0022,-0.0084,-0.0093,0,0,0,0,0,-0.0373,-0.0406,-0.0487,-0.0587,-0.067,-0.0738,-0.0833,-0.0866,-0.0879,-0.0815,-0.0766,-0.0671,-0.0474,-0.0398,-0.0271,-0.0265,0.0018,-0.011,0.0178,0.0301,0.0312,0.0174,0,0,0,0,0,0,-0.037,-0.0418,-0.0453,-0.0507,-0.0575,-0.067,-0.0721,-0.0763,-0.0708,-0.0722,-0.0627,-0.062,-0.0445,-0.0546,-0.0261,-0.023,-0.002,-0.0048,-0.0044,0.0295,0.0305,0.0314,0.0176,0,0,0,0,0]}]]